Regional Weather Roundup
Issued by NWS Midland/Odessa, TX

Skip options and go directly to product.
Home | Oldest Version | Previous Version | Current Version | All | Text Only | Save Text | Print | Product List | Glossary On

Skip product version selection by date and time.   
774
ASUS44 KMAF 270510
RWRMAF
MIDLAND AREA WEATHER ROUNDUP
NATIONAL WEATHER SERVICE MIDLAND TX
1200 AM CDT WED JUL 27 2016

...IN SOUTHWEST TEXAS AND SOUTHEAST NEW MEXICO...

CITY           SKY/WX    TMP DP  RH WIND       PRES   REMARKS
ALPINE         CLOUDY    74  62  64 SE3       30.19S
ANDREWS        FAIR      74  67  77 S5        30.07R
ARTESIA        CLOUDY    81  64  57 SE5       30.08R
BIG SPRING     PTCLDY    81  65  59 CALM      30.03S
CARLSBAD       CLOUDY    77  67  71 SE7       30.04R
DRYDEN           N/A     75  70  84 N7        30.00R
FORT STOCKTON  CLOUDY    75  67  76 S8        30.03F
GUAD PASS      CLOUDY    73  58  59 NE21      30.20S
HOBBS          CLOUDY    75  64  69 S3        30.09F
MARFA          PTCLDY    74  61  63 NE5       30.17R
MIDLAND AIRPK  MOCLDY    76  69  79 W3        30.03S
MIDLAND INTL   PTCLDY    75  70  84 W5        30.02R
ODESSA         CLOUDY    75  69  81 NW5       30.04S
PECOS          PTCLDY    79  63  57 E9        30.03S
PRESIDIO       FAIR      85  61  43 N7        30.02R
SEMINOLE       MOCLDY    74  65  72 CALM      30.08S
SNYDER           N/A     80  65  60 E5        30.02S
WINK           MOCLDY    76  66  71 S6        30.01S
$$
...OTHER STATIONS IN TEXAS...

CITY           SKY/WX    TMP DP  RH WIND       PRES   REMARKS
ABILENE        CLEAR     81  66  60 SE7       29.98R
AMARILLO       CLEAR     74  64  71 SE12      30.11R
AUSTIN         PTCLDY    76  74  93 SW5       29.94S
BROWNSVILLE    MOCLDY    83  78  85 S10       29.91S
CORPUS CHRISTI CLOUDY    84  78  82 SE10      29.93S
DALLAS FTW     MOCLDY    83  72  69 NE6       29.91S
DEL RIO        CLEAR     75  72  90 N5        29.94S
EL PASO        MOCLDY    82  59  45 E6        30.06R
HOUSTON INT    MOCLDY    79  74  84 S5        29.94S
LUBBOCK        PTCLDY    77  62  59 E6        30.06S
SAN ANGELO     CLEAR     82  68  62 SW8       29.99R
SAN ANTONIO    PTCLDY    75  72  90 E5        29.96R
WACO           CLEAR     82  72  71 S12       29.92S
WICHITA FALLS  NOT AVBL
$$
...OTHER LOCATIONS IN NEW MEXICO...

CITY           SKY/WX    TMP DP  RH WIND       PRES   REMARKS
ALAMAGORDO     CLOUDY    81  55  41 W9        30.07S
ALBUQUERQUE    CLOUDY    78  55  44 S13       30.21R
CANNON AFB     CLOUDY    72  64  75 SE7       30.14R
CLOVIS         CLEAR     73  59  60 S9        30.14S
HOLLOMAN AFB   CLOUDY    84  55  36 SW7       30.05R
ROSWELL        MOCLDY    78  60  53 SW6       30.07R
RUIDOSO          N/A     66  54  63 CALM      30.33R
SANTA FE       CLOUDY    72  52  49 S7        30.29R
TRUTH OR CONSE CLOUDY    79  54  41 NW12      30.11R
TUCUMCARI      MOCLDY    80  60  50 W8        30.09R
$$

USA.gov is the U.S. government's official web portal to all federal, state and local government web resources and services.